Time,TemperatureF,DewpointF,PressureIn,WindDirection,WindDirectionDegrees,WindSpeedMPH,WindSpeedGustMPH,Humidity,HourlyPrecipIn,Conditions,Clouds,dailyrainin,SoftwareType,DateUTC
2013-04-04 00:01:00,50.0,49.0,29.93,ESE,102,1.0,3.0,96,0.00,,,0.00,,2013-04-04 07:01:00,
2013-04-04 00:12:00,50.0,49.0,29.93,ESE,102,1.0,3.0,96,0.00,,,0.00,,2013-04-04 07:12:00,
2013-04-04 00:21:00,50.0,49.0,29.92,NNE,27,0.0,3.0,96,0.00,,,0.00,,2013-04-04 07:21:00,
2013-04-04 00:31:00,50.0,49.0,29.92,NNE,21,0.0,1.0,96,0.00,,,0.00,,2013-04-04 07:31:00,
2013-04-04 00:42:00,50.0,49.0,29.92,NNE,21,0.0,1.0,96,0.00,,,0.00,,2013-04-04 07:42:00,
2013-04-04 00:52:00,50.0,49.0,29.91,South,187,0.0,0.0,96,0.00,,,0.00,,2013-04-04 07:52:00,
2013-04-04 01:02:00,50.0,49.0,29.91,South,187,0.0,0.0,96,0.00,,,0.00,,2013-04-04 08:02:00,
2013-04-04 01:11:00,50.0,49.0,29.91,South,187,0.0,0.0,96,0.00,,,0.00,,2013-04-04 08:11:00,
2013-04-04 01:22:00,50.0,49.0,29.90,ENE,72,0.0,0.0,96,0.00,,,0.00,,2013-04-04 08:22:00,
2013-04-04 01:32:00,50.0,49.0,29.90,ENE,72,0.0,0.0,96,0.00,,,0.00,,2013-04-04 08:32:00,
2013-04-04 01:43:00,50.0,49.0,29.90,ENE,72,0.0,0.0,96,0.00,,,0.00,,2013-04-04 08:43:00,
2013-04-04 01:52:00,50.0,49.0,29.89,SSW,200,0.0,4.0,96,0.01,,,0.01,,2013-04-04 08:52:00,
2013-04-04 02:02:00,50.0,49.0,29.89,SSW,200,8.0,11.0,96,0.01,,,0.01,,2013-04-04 09:02:00,
2013-04-04 02:12:00,50.0,49.0,29.89,SSW,200,8.0,11.0,96,0.01,,,0.01,,2013-04-04 09:12:00,
2013-04-04 02:22:00,50.0,49.0,29.87,SSE,158,2.0,7.0,96,0.01,,,0.01,,2013-04-04 09:22:00,
2013-04-04 02:32:00,50.0,49.0,29.87,NNE,27,0.0,3.0,96,0.00,,,0.01,,2013-04-04 09:32:00,
2013-04-04 02:42:00,50.0,49.0,29.87,NNE,27,0.0,3.0,96,0.00,,,0.01,,2013-04-04 09:42:00,
2013-04-04 02:53:00,50.0,49.0,29.86,NNE,27,1.0,2.0,96,0.00,,,0.01,,2013-04-04 09:53:00,
2013-04-04 03:03:00,50.0,49.0,29.84,ENE,65,0.0,3.0,96,0.00,,,0.01,,2013-04-04 10:03:00,
2013-04-04 03:12:00,50.0,49.0,29.84,ENE,65,0.0,3.0,96,0.00,,,0.01,,2013-04-04 10:12:00,
2013-04-04 03:23:00,51.0,50.0,29.84,NE,40,2.0,5.0,96,0.00,,,0.01,,2013-04-04 10:23:00,
2013-04-04 03:32:00,52.0,51.0,29.84,SW,222,3.0,11.0,95,0.00,,,0.01,,2013-04-04 10:32:00,
2013-04-04 03:42:00,52.0,51.0,29.84,SW,222,3.0,11.0,95,0.00,,,0.01,,2013-04-04 10:42:00,
2013-04-04 03:53:00,51.0,50.0,29.84,SW,225,0.0,5.0,95,0.01,,,0.02,,2013-04-04 10:53:00,
2013-04-04 04:02:00,51.0,50.0,29.83,SW,225,0.0,0.0,95,0.01,,,0.02,,2013-04-04 11:02:00,
2013-04-04 04:12:00,51.0,50.0,29.83,SW,225,0.0,0.0,95,0.01,,,0.02,,2013-04-04 11:12:00,
2013-04-04 04:22:00,51.0,50.0,29.83,North,2,1.0,4.0,96,0.01,,,0.02,,2013-04-04 11:22:00,
2013-04-04 04:32:00,50.0,49.0,29.82,North,358,0.0,1.0,96,0.01,,,0.02,,2013-04-04 11:32:00,
2013-04-04 04:42:00,50.0,49.0,29.82,North,358,0.0,1.0,96,0.01,,,0.02,,2013-04-04 11:42:00,
2013-04-04 04:53:00,51.0,50.0,29.80,North,358,0.0,0.0,96,0.01,,,0.03,,2013-04-04 11:53:00,
2013-04-04 05:12:00,51.0,50.0,29.80,NNW,340,2.0,7.0,96,0.01,,,0.03,,2013-04-04 12:12:00,
2013-04-04 05:22:00,51.0,50.0,29.79,North,356,4.0,6.0,96,0.02,,,0.04,,2013-04-04 12:22:00,
2013-04-04 05:32:00,51.0,50.0,29.79,South,178,2.0,4.0,96,0.03,,,0.05,,2013-04-04 12:32:00,
2013-04-04 05:42:00,51.0,50.0,29.79,South,178,2.0,4.0,96,0.03,,,0.05,,2013-04-04 12:42:00,
2013-04-04 05:52:00,51.0,50.0,29.78,South,191,2.0,4.0,96,0.03,,,0.06,,2013-04-04 12:52:00,
2013-04-04 06:02:00,51.0,50.0,29.78,SSE,163,0.0,3.0,96,0.05,,,0.08,,2013-04-04 13:02:00,
2013-04-04 06:12:00,51.0,50.0,29.78,SSE,163,0.0,3.0,96,0.05,,,0.08,,2013-04-04 13:12:00,
2013-04-04 06:22:00,51.0,50.0,29.77,SSE,163,0.0,0.0,97,0.05,,,0.09,,2013-04-04 13:22:00,
2013-04-04 06:32:00,51.0,50.0,29.77,SSE,163,0.0,0.0,96,0.07,,,0.12,,2013-04-04 13:32:00,
2013-04-04 06:42:00,51.0,50.0,29.77,SSE,163,0.0,0.0,96,0.07,,,0.12,,2013-04-04 13:42:00,
2013-04-04 06:52:00,51.0,50.0,29.76,SSE,163,0.0,0.0,97,0.08,,,0.14,,2013-04-04 13:52:00,
2013-04-04 07:02:00,50.0,49.0,29.76,SSE,163,1.0,3.0,97,0.07,,,0.15,,2013-04-04 14:02:00,
2013-04-04 07:22:00,51.0,50.0,29.76,NNE,25,3.0,4.0,97,0.07,,,0.16,,2013-04-04 14:22:00,
2013-04-04 07:32:00,51.0,50.0,29.74,NNE,21,1.0,5.0,97,0.06,,,0.18,,2013-04-04 14:32:00,
2013-04-04 07:42:00,51.0,50.0,29.74,NNE,21,1.0,5.0,97,0.06,,,0.18,,2013-04-04 14:42:00,
2013-04-04 07:52:00,51.0,50.0,29.75,NNE,22,0.0,2.0,97,0.05,,,0.19,,2013-04-04 14:52:00,
2013-04-04 08:01:00,51.0,50.0,29.74,NNW,332,0.0,4.0,97,0.06,,,0.21,,2013-04-04 15:01:00,
2013-04-04 08:12:00,51.0,50.0,29.74,NNW,332,0.0,4.0,97,0.06,,,0.21,,2013-04-04 15:12:00,
2013-04-04 08:22:00,50.0,49.0,29.75,WNW,296,0.0,3.0,97,0.06,,,0.22,,2013-04-04 15:22:00,
2013-04-04 08:33:00,51.0,50.0,29.75,East,81,0.0,1.0,97,0.07,,,0.25,,2013-04-04 15:33:00,
2013-04-04 08:42:00,51.0,50.0,29.75,East,81,0.0,1.0,97,0.07,,,0.25,,2013-04-04 15:42:00,
2013-04-04 08:53:00,51.0,50.0,29.74,North,349,0.0,3.0,97,0.07,,,0.26,,2013-04-04 15:53:00,
2013-04-04 09:02:00,51.0,50.0,29.74,North,1,0.0,0.0,97,0.06,,,0.27,,2013-04-04 16:02:00,
2013-04-04 09:12:00,51.0,50.0,29.74,North,1,0.0,0.0,97,0.06,,,0.27,,2013-04-04 16:12:00,
2013-04-04 09:23:00,52.0,51.0,29.73,NNE,29,0.0,4.0,97,0.07,,,0.28,,2013-04-04 16:23:00,
2013-04-04 09:32:00,53.0,52.0,29.73,East,92,7.0,10.0,97,0.06,,,0.31,,2013-04-04 16:32:00,
2013-04-04 09:42:00,53.0,52.0,29.73,East,92,7.0,10.0,97,0.06,,,0.31,,2013-04-04 16:42:00,
2013-04-04 09:52:00,53.0,52.0,29.73,SSE,157,3.0,6.0,97,0.07,,,0.33,,2013-04-04 16:52:00,
2013-04-04 10:02:00,53.0,52.0,29.72,SSW,201,0.0,5.0,97,0.06,,,0.33,,2013-04-04 17:02:00,
2013-04-04 10:12:00,53.0,52.0,29.72,SSW,201,0.0,5.0,97,0.06,,,0.33,,2013-04-04 17:12:00,
2013-04-04 10:22:00,54.0,53.0,29.71,SE,140,0.0,3.0,97,0.06,,,0.35,,2013-04-04 17:22:00,
2013-04-04 10:32:00,54.0,53.0,29.71,SE,140,0.0,3.0,97,0.06,,,0.35,,2013-04-04 17:32:00,
2013-04-04 10:42:00,54.0,53.0,29.71,SE,140,0.0,3.0,97,0.06,,,0.35,,2013-04-04 17:42:00,
2013-04-04 11:02:00,55.0,54.0,29.72,South,185,15.0,22.0,97,0.07,,,0.40,,2013-04-04 18:02:00,
2013-04-04 11:12:00,55.0,54.0,29.72,South,185,15.0,22.0,97,0.07,,,0.40,,2013-04-04 18:12:00,
2013-04-04 11:22:00,56.0,55.0,29.72,South,185,20.0,29.0,96,0.07,,,0.42,,2013-04-04 18:22:00,
2013-04-04 11:32:00,55.0,54.0,29.71,South,185,22.0,32.0,96,0.06,,,0.43,,2013-04-04 18:32:00,
2013-04-04 11:42:00,55.0,54.0,29.71,South,185,22.0,32.0,96,0.06,,,0.43,,2013-04-04 18:42:00,
2013-04-04 11:52:00,55.0,54.0,29.71,SSW,204,15.0,25.0,96,0.05,,,0.44,,2013-04-04 18:52:00,
2013-04-04 12:02:00,54.0,53.0,29.71,SSW,211,34.0,42.0,96,0.05,,,0.45,,2013-04-04 19:02:00,
2013-04-04 12:12:00,54.0,53.0,29.71,SSW,211,34.0,42.0,96,0.05,,,0.45,,2013-04-04 19:12:00,
2013-04-04 12:21:00,54.0,53.0,29.71,SSW,211,34.0,42.0,96,0.05,,,0.45,,2013-04-04 19:21:00,
2013-04-04 12:32:00,54.0,53.0,29.72,South,183,32.0,48.0,96,0.03,,,0.45,,2013-04-04 19:32:00,
2013-04-04 12:42:00,54.0,53.0,29.72,South,183,32.0,48.0,96,0.03,,,0.45,,2013-04-04 19:42:00,
2013-04-04 12:52:00,54.0,53.0,29.72,South,182,37.0,53.0,96,0.05,,,0.48,,2013-04-04 19:52:00,
2013-04-04 13:02:00,54.0,53.0,29.73,South,181,34.0,52.0,96,0.07,,,0.51,,2013-04-04 20:02:00,
2013-04-04 13:12:00,54.0,53.0,29.73,South,181,34.0,52.0,96,0.07,,,0.51,,2013-04-04 20:12:00,
2013-04-04 13:22:00,53.0,52.0,29.74,South,172,36.0,57.0,96,0.08,,,0.53,,2013-04-04 20:22:00,
2013-04-04 13:32:00,53.0,52.0,29.76,South,183,33.0,51.0,96,0.12,,,0.56,,2013-04-04 20:32:00,
2013-04-04 13:42:00,53.0,52.0,29.76,South,183,33.0,51.0,96,0.12,,,0.56,,2013-04-04 20:42:00,
2013-04-04 13:52:00,53.0,52.0,29.76,SSE,156,34.0,51.0,96,0.10,,,0.57,,2013-04-04 20:52:00,
2013-04-04 14:02:00,53.0,52.0,29.76,SSE,156,34.0,51.0,96,0.10,,,0.57,,2013-04-04 21:02:00,
2013-04-04 14:12:00,53.0,52.0,29.76,SSE,156,34.0,51.0,96,0.10,,,0.57,,2013-04-04 21:12:00,
2013-04-04 14:22:00,53.0,52.0,29.78,South,180,30.0,43.0,96,0.06,,,0.59,,2013-04-04 21:22:00,
2013-04-04 14:32:00,53.0,52.0,29.78,South,184,33.0,43.0,96,0.02,,,0.59,,2013-04-04 21:32:00,
2013-04-04 14:42:00,53.0,52.0,29.78,South,184,33.0,43.0,96,0.02,,,0.59,,2013-04-04 21:42:00,
2013-04-04 14:52:00,53.0,52.0,29.79,South,189,30.0,46.0,96,0.01,,,0.59,,2013-04-04 21:52:00,
2013-04-04 15:03:00,53.0,52.0,29.79,South,190,30.0,42.0,96,0.01,,,0.59,,2013-04-04 22:03:00,
2013-04-04 15:12:00,53.0,52.0,29.79,South,190,30.0,42.0,96,0.01,,,0.59,,2013-04-04 22:12:00,
2013-04-04 15:22:00,53.0,52.0,29.80,SSW,194,31.0,45.0,96,0.00,,,0.59,,2013-04-04 22:22:00,
2013-04-04 15:33:00,53.0,52.0,29.80,SSW,194,29.0,42.0,96,0.00,,,0.59,,2013-04-04 22:33:00,
2013-04-04 15:42:00,53.0,52.0,29.80,SSW,194,29.0,42.0,96,0.00,,,0.59,,2013-04-04 22:42:00,
2013-04-04 15:52:00,53.0,52.0,29.80,South,183,28.0,47.0,96,0.00,,,0.59,,2013-04-04 22:52:00,
2013-04-04 16:12:00,52.0,51.0,29.80,SSE,166,32.0,47.0,96,0.00,,,0.59,,2013-04-04 23:12:00,
2013-04-04 16:22:00,53.0,52.0,29.81,SSW,192,27.0,46.0,96,0.00,,,0.59,,2013-04-04 23:22:00,
2013-04-04 16:32:00,52.0,51.0,29.81,South,190,30.0,45.0,96,0.00,,,0.59,,2013-04-04 23:32:00,
2013-04-04 16:42:00,52.0,51.0,29.81,South,190,30.0,45.0,96,0.00,,,0.59,,2013-04-04 23:42:00,
2013-04-04 16:52:00,52.0,51.0,29.82,South,184,30.0,43.0,96,0.00,,,0.59,,2013-04-04 23:52:00,
2013-04-04 17:02:00,53.0,52.0,29.81,South,187,25.0,41.0,96,0.00,,,0.59,,2013-04-05 00:02:00,
2013-04-04 17:12:00,53.0,52.0,29.81,South,187,25.0,41.0,96,0.00,,,0.59,,2013-04-05 00:12:00,
2013-04-04 17:22:00,52.0,51.0,29.82,South,169,28.0,42.0,96,0.00,,,0.59,,2013-04-05 00:22:00,
2013-04-04 17:32:00,52.0,51.0,29.82,South,176,31.0,42.0,96,0.00,,,0.59,,2013-04-05 00:32:00,
2013-04-04 17:42:00,52.0,51.0,29.82,South,176,31.0,42.0,96,0.00,,,0.59,,2013-04-05 00:42:00,
2013-04-04 17:52:00,52.0,51.0,29.82,South,191,30.0,42.0,96,0.00,,,0.59,,2013-04-05 00:52:00,
2013-04-04 18:02:00,52.0,51.0,29.82,South,187,27.0,40.0,96,0.00,,,0.59,,2013-04-05 01:02:00,
2013-04-04 18:12:00,52.0,51.0,29.82,South,187,27.0,40.0,96,0.00,,,0.59,,2013-04-05 01:12:00,
2013-04-04 18:22:00,52.0,51.0,29.82,South,174,26.0,42.0,96,0.00,,,0.59,,2013-04-05 01:22:00,
2013-04-04 18:32:00,52.0,51.0,29.82,South,174,26.0,42.0,96,0.00,,,0.59,,2013-04-05 01:32:00,
2013-04-04 18:42:00,52.0,51.0,29.82,South,174,26.0,42.0,96,0.00,,,0.59,,2013-04-05 01:42:00,
2013-04-04 18:52:00,52.0,51.0,29.82,South,185,26.0,39.0,96,0.00,,,0.59,,2013-04-05 01:52:00,
2013-04-04 19:02:00,52.0,51.0,29.82,SSW,194,27.0,39.0,96,0.01,,,0.60,,2013-04-05 02:02:00,
2013-04-04 19:12:00,52.0,51.0,29.82,SSW,194,27.0,39.0,96,0.01,,,0.60,,2013-04-05 02:12:00,
2013-04-04 19:22:00,52.0,51.0,29.82,South,189,26.0,39.0,96,0.01,,,0.60,,2013-04-05 02:22:00,
2013-04-04 19:32:00,52.0,51.0,29.83,South,176,31.0,39.0,95,0.01,,,0.60,,2013-04-05 02:32:00,
2013-04-04 19:42:00,52.0,51.0,29.83,South,176,31.0,39.0,95,0.01,,,0.60,,2013-04-05 02:42:00,
2013-04-04 19:52:00,51.0,50.0,29.83,South,177,30.0,40.0,95,0.01,,,0.60,,2013-04-05 02:52:00,
2013-04-04 20:02:00,52.0,51.0,29.83,SSE,164,27.0,43.0,95,0.00,,,0.60,,2013-04-05 03:02:00,
2013-04-04 20:12:00,52.0,51.0,29.83,SSE,164,27.0,43.0,95,0.00,,,0.60,,2013-04-05 03:12:00,
2013-04-04 20:22:00,51.0,50.0,29.83,South,186,26.0,39.0,95,0.01,,,0.61,,2013-04-05 03:22:00,
2013-04-04 20:32:00,51.0,50.0,29.84,South,185,23.0,36.0,95,0.01,,,0.61,,2013-04-05 03:32:00,
2013-04-04 20:43:00,51.0,50.0,29.84,South,185,23.0,36.0,95,0.01,,,0.61,,2013-04-05 03:43:00,
2013-04-04 20:53:00,51.0,50.0,29.84,South,191,25.0,35.0,95,0.01,,,0.61,,2013-04-05 03:53:00,
2013-04-04 21:02:00,51.0,50.0,29.84,South,190,26.0,41.0,96,0.01,,,0.61,,2013-04-05 04:02:00,
2013-04-04 21:12:00,51.0,50.0,29.84,South,190,26.0,41.0,96,0.01,,,0.61,,2013-04-05 04:12:00,
2013-04-04 21:22:00,51.0,50.0,29.84,South,177,25.0,43.0,96,0.00,,,0.61,,2013-04-05 04:22:00,
2013-04-04 21:32:00,51.0,50.0,29.85,South,185,20.0,30.0,95,0.00,,,0.61,,2013-04-05 04:32:00,
2013-04-04 21:42:00,51.0,50.0,29.85,South,185,20.0,30.0,95,0.00,,,0.61,,2013-04-05 04:42:00,
2013-04-04 21:52:00,51.0,50.0,29.86,South,171,22.0,32.0,95,0.00,,,0.61,,2013-04-05 04:52:00,
2013-04-04 22:02:00,51.0,50.0,29.87,South,173,26.0,37.0,95,0.00,,,0.61,,2013-04-05 05:02:00,
2013-04-04 22:12:00,51.0,50.0,29.87,South,173,26.0,37.0,95,0.00,,,0.61,,2013-04-05 05:12:00,
2013-04-04 22:22:00,51.0,50.0,29.87,South,188,25.0,36.0,95,0.00,,,0.61,,2013-04-05 05:22:00,
2013-04-04 22:32:00,51.0,50.0,29.86,South,183,23.0,37.0,96,0.00,,,0.61,,2013-04-05 05:32:00,
2013-04-04 22:42:00,51.0,50.0,29.86,South,183,23.0,37.0,96,0.00,,,0.61,,2013-04-05 05:42:00,
2013-04-04 22:52:00,51.0,50.0,29.88,SSW,200,25.0,36.0,96,0.00,,,0.61,,2013-04-05 05:52:00,
2013-04-04 23:02:00,51.0,50.0,29.88,South,173,25.0,32.0,96,0.00,,,0.61,,2013-04-05 06:02:00,
2013-04-04 23:12:00,51.0,50.0,29.88,South,173,25.0,32.0,96,0.00,,,0.61,,2013-04-05 06:12:00,
2013-04-04 23:22:00,51.0,50.0,29.89,SSW,204,21.0,32.0,96,0.00,,,0.61,,2013-04-05 06:22:00,
2013-04-04 23:32:00,51.0,50.0,29.89,SSE,162,22.0,33.0,96,0.00,,,0.61,,2013-04-05 06:32:00,
2013-04-04 23:42:00,51.0,50.0,29.89,SSE,162,22.0,33.0,96,0.00,,,0.61,,2013-04-05 06:42:00,
2013-04-04 23:52:00,51.0,50.0,29.89,South,191,21.0,29.0,96,0.00,,,0.61,,2013-04-05 06:52:00,